Location: ??????
(31.2056°N, 45.3906°E)
Time: 16:49:27
(UTC+00:00)

Cosmos 2369 Rocket - Pass Details

Date: 09 April 2020
Orbit: 829 x 852 km, 71.0° (Epoch: 26 May)

Event Time Altitude Azimuth Distance (km) Brightness Sun altitude
Rises 17:06:50 0° 321° (NW) 3,404 6.4 -22.0°
Reaches altitude 10° 17:09:51 10° 306° (NW) 2,461 5.7 -22.6°
Maximum altitude 17:13:56 21° 260° (W) 1,806 4.5 -23.3°
Drops below altitude 10° 17:18:00 10° 213° (SSW) 2,440 4.7 -24.1°
Sets 17:20:59 0° 197° (SSW) 3,366 5.2 -24.7°
